Location: Unspecified
(48.1967°N, 0.0000°E)
Time: 21:54:59
(UTC+00:00)

TDS 1 - Visible Passes

Search period start: 04 April 2026 00:00
Search period end: 14 April 2026 00:00
Orbit: 526 x 535 km, 98.4° (Epoch: 28 March)

Date Brightness Start Highest point End Pass type
(mag) Time Alt. Az. Time Alt. Az. Time Alt. Az.
4 Apr ? 03:53:05 10° NE 03:55:32 16° E 03:57:59 10° SE visible
5 Apr ? 03:43:14 10° ENE 03:44:54 12° E 03:46:35 10° ESE visible
8 Apr ? 04:44:04 10° NNE 04:47:51 56° ESE 04:51:36 10° S visible
9 Apr ? 04:33:33 10° NNE 04:37:13 41° E 04:40:50 10° S visible
10 Apr ? 04:23:05 10° NNE 04:26:32 31° E 04:29:58 10° SSE visible
11 Apr ? 04:12:39 10° NE 04:15:49 24° E 04:18:58 10° SSE visible
12 Apr ? 04:02:19 10° NE 04:05:04 19° E 04:07:48 10° SE visible
13 Apr ? 03:52:08 10° ENE 03:54:16 14° E 03:56:24 10° SE visible
